Plymouth, NH

6:44 AM EDT on April 27, 2017 (GMT -0400)
Plymouth

Weather History for K1P1 - November, 2011

Change the Weather History Date:

Wednesday, November 9, 2011

  Actual Average (KLCI) Record (KLCI)
Temperature  
Mean Temperature 50 °F -  
Max Temperature 68 °F 49 °F 68 °F (2011)
Min Temperature 33 °F 33 °F 17 °F (1992)
Degree Days  
Heating Degree Days 14    
Moisture  
Dew Point 42 °F    
Average Humidity 88    
Maximum Humidity 100    
Minimum Humidity 49    
Precipitation  
Precipitation 0.00 in - - ()
Sea Level Pressure  
Sea Level Pressure 30.14 in    
Wind  
Wind Speed 0 mph (ESE)    
Max Wind Speed 6 mph    
Max Gust Speed -    
Visibility 5 miles    
Events Fog    
Averages and records for this station are not official NWS values.
T = Trace of Precipitation, MM = Missing Value Source: NWS Daily Summary

Daily Weather History Graph

Daily Weather History Graph

Search for Another Location

Airport or City:

Trip Planner

Search our weather history database for the weather conditions in past years. The results will help you decide how hot, cold, wet, or windy it might be!

Date:

Astronomy

Nov. 09, 2011 Rise Set
Actual Time 6:33 AM EST 4:27 PM EST
Civil Twilight 6:02 AM EST 4:58 PM EST
Nautical Twilight 5:28 AM EST 5:32 PM EST
Astronomical Twilight 4:54 AM EST 6:06 PM EST
Moon 3:37 PM EST (11/9) 5:25 AM EST (11/9)
Length of Visible Light 10h 55m
Length of Day
9h 54m
Waxing Gibbous, 99% of the Moon is Illuminated
Nov 9
Waxing Gibbous
Nov 10
Full
Nov 18
Last Quarter
Nov 25
New
Dec 2
First Quarter

Hourly Weather History & Observations

Time (EST) Temp. Dew Point Humidity Pressure Visibility Wind Dir Wind Speed Gust Speed Precip Events Conditions
12:35 AM 37.4 °F 37.4 °F 100% 30.21 in 1.0 mi Calm Calm - N/A   Mist
12:55 AM 37.4 °F 37.4 °F 100% 30.22 in 2.5 mi Calm Calm - N/A   Clear
1:35 AM 37.4 °F 37.4 °F 100% 30.22 in 1.5 mi Calm Calm - N/A   Scattered Clouds
1:55 AM 35.6 °F 35.6 °F 100% 30.22 in 2.5 mi Calm Calm - N/A   Scattered Clouds
2:15 AM 35.6 °F 35.6 °F 100% 30.21 in 0.8 mi Calm Calm - N/A   Overcast
2:35 AM 35.6 °F 35.6 °F 100% 30.21 in 1.5 mi Calm Calm - N/A   Mostly Cloudy
2:55 AM 35.6 °F 35.6 °F 100% 30.21 in 2.5 mi Calm Calm - N/A   Clear
3:15 AM 35.6 °F 35.6 °F 100% 30.21 in 1.8 mi Calm Calm - N/A   Mostly Cloudy
3:35 AM 33.8 °F 33.8 °F 100% 30.21 in 1.5 mi Calm Calm - N/A   Scattered Clouds
3:55 AM 35.6 °F 35.6 °F 100% 30.21 in 1.0 mi Calm Calm - N/A   Mostly Cloudy
4:15 AM 33.8 °F 33.8 °F 100% 30.21 in 0.2 mi Calm Calm - N/A Fog Fog
4:35 AM 33.8 °F 33.8 °F 100% 30.21 in 0.2 mi Calm Calm - N/A Fog Fog
4:55 AM 33.8 °F 33.8 °F 100% 30.21 in 0.2 mi Calm Calm - N/A Fog Fog
5:15 AM 33.8 °F 33.8 °F 100% 30.21 in 0.2 mi Calm Calm - N/A Fog Fog
5:35 AM 35.6 °F 35.6 °F 100% 30.20 in 0.2 mi Calm Calm - N/A Fog Fog
5:55 AM 33.8 °F 33.8 °F 100% 30.20 in 0.2 mi Calm Calm - N/A Fog Fog
6:15 AM 33.8 °F 33.8 °F 100% 30.20 in 0.5 mi Calm Calm - N/A Fog Fog
6:35 AM 33.8 °F 33.8 °F 100% 30.21 in 0.5 mi Calm Calm - N/A Fog Fog
6:55 AM 33.8 °F 33.8 °F 100% 30.21 in 0.2 mi Calm Calm - N/A Fog Fog
7:15 AM 33.8 °F 33.8 °F 100% 30.22 in 0.2 mi Calm Calm - N/A Fog Fog
7:35 AM 35.6 °F 35.6 °F 100% 30.22 in 0.2 mi Calm Calm - N/A Fog Fog
7:55 AM 35.6 °F 35.6 °F 100% 30.22 in 0.2 mi Calm Calm - N/A Fog Fog
8:15 AM 35.6 °F 35.6 °F 100% 30.22 in 0.2 mi Calm Calm - N/A Fog Fog
8:35 AM 37.4 °F 37.4 °F 100% 30.21 in 0.2 mi Calm Calm - N/A Fog Fog
8:55 AM 41.0 °F 41.0 °F 100% 30.20 in 3.0 mi Calm Calm - N/A   Scattered Clouds
9:15 AM 42.8 °F 42.8 °F 100% 30.20 in 7.0 mi Calm Calm - N/A   Clear
9:35 AM 44.6 °F 44.6 °F 100% 30.19 in 10.0 mi Calm Calm - N/A   Clear
9:55 AM 46.4 °F 46.4 °F 100% 30.19 in 10.0 mi Calm Calm - N/A   Clear
10:15 AM 50.0 °F 48.2 °F 94% 30.18 in 10.0 mi Calm Calm - N/A   Clear
10:35 AM 51.8 °F 50.0 °F 94% 30.17 in 10.0 mi Calm Calm - N/A   Clear
10:55 AM 53.6 °F 51.8 °F 94% 30.17 in 10.0 mi Calm Calm - N/A   Clear
11:15 AM 59.0 °F 46.4 °F 63% 30.15 in 10.0 mi East 4.6 mph - N/A   Clear
11:35 AM 60.8 °F 46.4 °F 59% 30.14 in 10.0 mi East 3.5 mph - N/A   Clear
11:55 AM 62.6 °F 46.4 °F 55% 30.13 in 10.0 mi Calm Calm - N/A   Clear
12:35 PM 64.4 °F 48.2 °F 56% 30.11 in 10.0 mi ENE 5.8 mph - N/A   Clear
12:55 PM 66.2 °F 50.0 °F 56% 30.10 in 10.0 mi ESE 4.6 mph - N/A   Clear
1:35 PM 68.0 °F 48.2 °F 49% 30.08 in 10.0 mi ESE 5.8 mph - N/A   Clear
1:55 PM 68.0 °F 50.0 °F 52% 30.07 in 10.0 mi Calm Calm - N/A   Clear
2:15 PM 68.0 °F 48.2 °F 49% 30.07 in 10.0 mi South 3.5 mph - N/A   Clear
2:35 PM 68.0 °F 50.0 °F 52% 30.06 in 10.0 mi Calm Calm - N/A   Clear
2:55 PM 68.0 °F 50.0 °F 52% 30.05 in 10.0 mi SE 4.6 mph - N/A   Clear
3:15 PM 68.0 °F 50.0 °F 52% 30.05 in 10.0 mi East 5.8 mph - N/A   Clear
3:35 PM 68.0 °F 50.0 °F 52% 30.05 in 10.0 mi Calm Calm - N/A   Clear
3:55 PM 64.4 °F 50.0 °F 59% 30.05 in 10.0 mi Calm Calm - N/A   Clear
4:15 PM 60.8 °F 50.0 °F 68% 30.05 in 10.0 mi Calm Calm - N/A   Clear
4:35 PM 55.4 °F 50.0 °F 82% 30.05 in 10.0 mi Calm Calm - N/A   Clear
4:55 PM 55.4 °F 50.0 °F 82% 30.06 in 10.0 mi Calm Calm - N/A   Clear
5:15 PM 53.6 °F 50.0 °F 88% 30.06 in 10.0 mi Calm Calm - N/A   Clear
5:35 PM 51.8 °F 50.0 °F 94% 30.07 in 10.0 mi Calm Calm - N/A   Clear
5:55 PM 51.8 °F 48.2 °F 88% 30.07 in 10.0 mi Calm Calm - N/A   Clear
6:15 PM 50.0 °F 46.4 °F 87% 30.07 in 10.0 mi Calm Calm - N/A   Clear
6:55 PM 46.4 °F 44.6 °F 93% 30.06 in 7.0 mi Calm Calm - N/A   Clear
7:15 PM 46.4 °F 44.6 °F 93% 30.06 in 5.0 mi Calm Calm - N/A   Clear
7:55 PM 44.6 °F 44.6 °F 100% 30.06 in 3.0 mi Calm Calm - N/A   Clear
8:15 PM 44.6 °F 42.8 °F 93% 30.05 in 0.5 mi Calm Calm - N/A Fog Fog
8:35 PM 42.8 °F 42.8 °F 100% 30.05 in 1.2 mi Calm Calm - N/A   Mist
8:55 PM 42.8 °F 42.8 °F 100% 30.05 in 0.2 mi Calm Calm - N/A Fog Fog
9:15 PM 41.0 °F 41.0 °F 100% 30.05 in 0.8 mi Calm Calm - N/A   Mist
9:35 PM 41.0 °F 41.0 °F 100% 30.05 in 1.2 mi Calm Calm - N/A   Mist
9:55 PM 39.2 °F 39.2 °F 100% 30.05 in 0.8 mi Calm Calm - N/A   Mostly Cloudy
10:15 PM 41.0 °F 41.0 °F 100% 30.04 in 1.8 mi Calm Calm - N/A   Scattered Clouds
10:35 PM 41.0 °F 41.0 °F 100% 30.04 in 0.8 mi Calm Calm - N/A   Mist
11:15 PM 37.4 °F 37.4 °F 100% 30.04 in 0.5 mi Calm Calm - N/A Fog Fog
11:35 PM 37.4 °F 37.4 °F 100% 30.04 in 1.2 mi Calm Calm - N/A   Mostly Cloudy
11:55 PM 39.2 °F 39.2 °F 100% 30.04 in 4.0 mi Calm Calm - N/A   Overcast